2014-12-25 00:01:18 r, 18.07m,0000000005Hz,0000093140c,0000000.202s, 011.9C,00002191
2014-12-25 00:11:17 r, 18.10m,0000000004Hz,0000095656c,0000000.208s, 011.6C,00002191
2014-12-25 00:21:20 r, 18.11m,0000000005Hz,0000096712c,0000000.210s, 011.6C,00002191
2014-12-25 00:31:17 r, 18.14m,0000000004Hz,0000098690c,0000000.214s, 011.6C,00002191
2014-12-25 00:41:18 r, 18.06m,0000000005Hz,0000091486c,0000000.199s, 011.9C,00002191
2014-12-25 00:51:19 r, 18.17m,0000000004Hz,0000101733c,0000000.221s, 011.9C,00002191
2014-12-25 01:01:20 r, 18.34m,0000000003Hz,0000118959c,0000000.258s, 011.9C,00002191
2014-12-25 01:11:17 r, 18.29m,0000000004Hz,0000113524c,0000000.246s, 011.9C,00002191
2014-12-25 01:21:19 r, 18.53m,0000000004Hz,0000141107c,0000000.306s, 012.2C,00002191
2014-12-25 01:31:17 r, 18.43m,0000000004Hz,0000128780c,0000000.279s, 012.2C,00002191
2014-12-25 01:41:19 r, 18.36m,0000000003Hz,0000121851c,0000000.264s, 012.2C,00002191
2014-12-25 01:51:18 r, 18.18m,0000000005Hz,0000103209c,0000000.224s, 012.2C,00002191
2014-12-25 02:01:17 r, 18.21m,0000000005Hz,0000105670c,0000000.229s, 012.5C,00002191
2014-12-25 02:11:18 r, 18.22m,0000000004Hz,0000106896c,0000000.232s, 012.2C,00002191
2014-12-25 02:21:17 r, 18.37m,0000000003Hz,0000122004c,0000000.265s, 012.2C,00002191
2014-12-25 02:31:20 r, 18.17m,0000000005Hz,0000101886c,0000000.221s, 012.2C,00002191
2014-12-25 02:41:17 r, 18.36m,0000000003Hz,0000120950c,0000000.262s, 012.2C,00002191
2014-12-25 02:51:18 r, 18.31m,0000000004Hz,0000115002c,0000000.250s, 012.2C,00002191
2014-12-25 03:01:19 r, 18.36m,0000000004Hz,0000120967c,0000000.263s, 012.2C,00002191
2014-12-25 03:11:18 r, 18.35m,0000000004Hz,0000120241c,0000000.261s, 012.2C,00002191
2014-12-25 03:21:37 r, 18.29m,0000000004Hz,0000114035c,0000000.247s, 012.2C,00002191
2014-12-25 03:31:17 r, 18.06m,0000000005Hz,0000091139c,0000000.198s, 012.2C,00002191
2014-12-25 03:41:17 r, 18.20m,0000000004Hz,0000104651c,0000000.227s, 012.2C,00002191
2014-12-25 03:51:21 r, 18.34m,0000000004Hz,0000118429c,0000000.257s, 011.9C,00002191
2014-12-25 04:01:17 r, 18.38m,0000000004Hz,0000123642c,0000000.268s, 011.9C,00002191
2014-12-25 04:11:20 r, 18.57m,0000000003Hz,0000145513c,0000000.316s, 011.9C,00002191
2014-12-25 04:21:17 r, 18.48m,0000000004Hz,0000134277c,0000000.291s, 011.9C,00002191
2014-12-25 04:31:18 r, 18.43m,0000000004Hz,0000128720c,0000000.279s, 011.9C,00002191
2014-12-25 04:41:17 r, 18.46m,0000000003Hz,0000132478c,0000000.287s, 011.9C,00002191
2014-12-25 04:51:18 r, 18.58m,0000000003Hz,0000147707c,0000000.321s, 011.6C,00002191
2014-12-25 05:01:17 r, 18.65m,0000000003Hz,0000157485c,0000000.342s, 011.6C,00002191
2014-12-25 05:11:17 r, 18.55m,0000000003Hz,0000143997c,0000000.312s, 011.6C,00002191
2014-12-25 05:21:18 r, 18.49m,0000000003Hz,0000135936c,0000000.295s, 011.2C,00002191
2014-12-25 05:31:17 r, 18.40m,0000000003Hz,0000123933c,0000000.269s, 010.9C,00002191
2014-12-25 05:41:18 r, 18.96m,0000000002Hz,0000209445c,0000000.455s, 010.9C,00002191
2014-12-25 05:51:17 r, 18.65m,0000000003Hz,0000157535c,0000000.342s, 010.6C,00002191
2014-12-25 06:01:18 r, 19.16m,0000000002Hz,0000251579c,0000000.546s, 010.6C,00002191
2014-12-25 06:11:17 r, 19.95m,0000000001Hz,0000518237c,0000001.125s, 010.3C,00002191
2014-12-25 06:21:20 r, 19.51m,0000000001Hz,0000346542c,0000000.752s, 010.3C,00002191
2014-12-25 06:31:18 r, 19.28m,0000000002Hz,0000279968c,0000000.608s, 009.9C,00002191
2014-12-25 06:41:19 r, 18.86m,0000000003Hz,0000190193c,0000000.413s, 009.9C,00002191
2014-12-25 06:51:17 r, 18.83m,0000000003Hz,0000185174c,0000000.402s, 009.9C,00002191
2014-12-25 07:01:19 r, 18.76m,0000000003Hz,0000173780c,0000000.377s, 009.9C,00002191
2014-12-25 07:11:17 r, 18.15m,0000000005Hz,0000098913c,0000000.215s, 009.9C,00002191
2014-12-25 07:21:18 r, 17.20m,0000000011Hz,0000041916c,0000000.091s, 009.9C,00002191
2014-12-25 07:31:19 r, 15.82m,0000000039Hz,0000011699c,0000000.025s, 009.9C,00002191
2014-12-25 07:41:18 r, 14.37m,0000000151Hz,0000000000c,0000000.000s, 009.9C,00002191
2014-12-25 07:51:17 r, 12.51m,0000000842Hz,0000000000c,0000000.000s, 009.6C,00002191
2014-12-25 08:01:18 r, 10.53m,0000005215Hz,0000000000c,0000000.000s, 009.9C,00002191
2014-12-25 08:11:17 r, 09.09m,0000019711Hz,0000000000c,0000000.000s, 009.9C,00002191
2014-12-25 08:21:19 r, 08.04m,0000051515Hz,0000000000c,0000000.000s, 009.9C,00002191
2014-12-25 08:31:19 r, 07.11m,0000121392Hz,0000000000c,0000000.000s, 009.9C,00002191
2014-12-25 08:41:20 r, 06.49m,0000214756Hz,0000000000c,0000000.000s, 009.6C,00002191
2014-12-25 08:51:17 r, 06.11m,0000305567Hz,0000000000c,0000000.000s, 009.6C,00002191
2014-12-25 09:01:19 r, 05.89m,0000374544Hz,0000000000c,0000000.000s, 009.6C,00002191
2014-12-25 09:11:18 r, 00.00m,0000516958Hz,0000000000c,0000000.000s, 009.6C,00002191
2014-12-25 09:21:17 r, 00.00m,0000576778Hz,0000000000c,0000000.000s, 009.9C,00002191
2014-12-25 09:31:19 r, 00.00m,0000596864Hz,0000000000c,0000000.000s, 009.9C,00002191
2014-12-25 09:41:17 r, 00.00m,0000596745Hz,0000000000c,0000000.000s, 009.9C,00002191
2014-12-25 09:51:18 r, 00.00m,0000596678Hz,0000000000c,0000000.000s, 009.9C,00002191
2014-12-25 10:01:17 r, 00.00m,0000596760Hz,0000000000c,0000000.000s, 010.3C,00002191
2014-12-25 10:11:18 r, 00.00m,0000596526Hz,0000000000c,0000000.000s, 010.6C,00002191
2014-12-25 10:21:17 r, 00.00m,0000596625Hz,0000000000c,0000000.000s, 010.6C,00002191
2014-12-25 10:31:18 r, 00.00m,0000596580Hz,0000000000c,0000000.000s, 010.9C,00002191
2014-12-25 10:41:17 r, 00.00m,0000596522Hz,0000000000c,0000000.000s, 011.6C,00002191
2014-12-25 10:51:19 r, 00.00m,0000596581Hz,0000000000c,0000000.000s, 011.9C,00002191
2014-12-25 11:01:20 r, 00.00m,0000596484Hz,0000000000c,0000000.000s, 012.2C,00002191
2014-12-25 11:11:19 r, 00.00m,0000596502Hz,0000000000c,0000000.000s, 012.5C,00002191
2014-12-25 11:21:17 r, 00.00m,0000596413Hz,0000000000c,0000000.000s, 012.8C,00002191
2014-12-25 11:31:20 r, 00.00m,0000596326Hz,0000000000c,0000000.000s, 013.2C,00002191
2014-12-25 11:41:17 r, 00.00m,0000596416Hz,0000000000c,0000000.000s, 013.2C,00002191
2014-12-25 11:51:17 r, 00.00m,0000596315Hz,0000000000c,0000000.000s, 013.5C,00002191
2014-12-25 12:01:18 r, 00.00m,0000596324Hz,0000000000c,0000000.000s, 013.5C,00002191
2014-12-25 12:11:18 r, 00.00m,0000596328Hz,0000000000c,0000000.000s, 013.8C,00002191
2014-12-25 12:21:17 r, 00.00m,0000596257Hz,0000000000c,0000000.000s, 013.8C,00002191
2014-12-25 12:31:19 r, 00.00m,0000596233Hz,0000000000c,0000000.000s, 013.8C,00002191
2014-12-25 12:41:17 r, 00.00m,0000596363Hz,0000000000c,0000000.000s, 013.8C,00002191
2014-12-25 12:51:19 r, 00.00m,0000596285Hz,0000000000c,0000000.000s, 013.8C,00002191
2014-12-25 13:01:17 r, 00.00m,0000596304Hz,0000000000c,0000000.000s, 014.1C,00002191
2014-12-25 13:11:27 r, 00.00m,0000596225Hz,0000000000c,0000000.000s, 014.1C,00002191
2014-12-25 13:21:17 r, 00.00m,0000596244Hz,0000000000c,0000000.000s, 014.1C,00002191
2014-12-25 13:31:17 r, 00.00m,0000596343Hz,0000000000c,0000000.000s, 013.8C,00002191
2014-12-25 13:41:20 r, 00.00m,0000596409Hz,0000000000c,0000000.000s, 013.5C,00002191
2014-12-25 13:51:17 r, 00.00m,0000596442Hz,0000000000c,0000000.000s, 013.2C,00002191
2014-12-25 14:01:17 r, 00.00m,0000596427Hz,0000000000c,0000000.000s, 013.2C,00002191
2014-12-25 14:11:17 r, 00.00m,0000596453Hz,0000000000c,0000000.000s, 012.8C,00002191
2014-12-25 14:21:18 r, 00.00m,0000596414Hz,0000000000c,0000000.000s, 012.8C,00002191
2014-12-25 14:31:17 r, 00.00m,0000596451Hz,0000000000c,0000000.000s, 012.5C,00002191
2014-12-25 14:41:18 r, 00.00m,0000596429Hz,0000000000c,0000000.000s, 012.2C,00002191
2014-12-25 14:51:17 r, 00.00m,0000596519Hz,0000000000c,0000000.000s, 012.2C,00002191
2014-12-25 15:01:21 r, 00.00m,0000596473Hz,0000000000c,0000000.000s, 011.9C,00002191
2014-12-25 15:11:18 r, 00.00m,0000596572Hz,0000000000c,0000000.000s, 011.6C,00002191
2014-12-25 15:21:19 r, 00.00m,0000596608Hz,0000000000c,0000000.000s, 011.2C,00002191
2014-12-25 15:31:18 r, 00.00m,0000596527Hz,0000000000c,0000000.000s, 011.2C,00002191
2014-12-25 15:41:19 r, 00.00m,0000533587Hz,0000000000c,0000000.000s, 011.2C,00002191
2014-12-25 15:51:17 r, 05.95m,0000352562Hz,0000000000c,0000000.000s, 010.9C,00002191
2014-12-25 16:01:18 r, 06.21m,0000277962Hz,0000000000c,0000000.000s, 010.9C,00002191
2014-12-25 16:11:21 r, 06.64m,0000186136Hz,0000000000c,0000000.000s, 010.6C,00002191
2014-12-25 16:21:18 r, 07.16m,0000114978Hz,0000000000c,0000000.000s, 010.6C,00002191
2014-12-25 16:31:17 r, 07.82m,0000062938Hz,0000000000c,0000000.000s, 010.6C,00002191
2014-12-25 16:41:18 r, 08.64m,0000029496Hz,0000000000c,0000000.000s, 010.3C,00002191
2014-12-25 16:51:17 r, 09.95m,0000008894Hz,0000000000c,0000000.000s, 010.3C,00002191
2014-12-25 17:01:19 r, 11.80m,0000001605Hz,0000000000c,0000000.000s, 010.6C,00002191
2014-12-25 17:11:17 r, 13.53m,0000000329Hz,0000000000c,0000000.000s, 010.3C,00002191
2014-12-25 17:21:17 r, 15.16m,0000000073Hz,0000006354c,0000000.014s, 010.3C,00002191
2014-12-25 17:31:17 r, 16.60m,0000000019Hz,0000023892c,0000000.052s, 010.3C,00002191
2014-12-25 17:41:17 r, 17.66m,0000000007Hz,0000063378c,0000000.138s, 009.9C,00002191
2014-12-25 17:51:20 r, 18.28m,0000000004Hz,0000111305c,0000000.242s, 009.9C,00002191
2014-12-25 18:01:17 r, 18.65m,0000000003Hz,0000157279c,0000000.341s, 009.9C,00002191
2014-12-25 18:11:19 r, 18.85m,0000000003Hz,0000187595c,0000000.407s, 009.6C,00002191
2014-12-25 18:21:17 r, 19.32m,0000000002Hz,0000290935c,0000000.631s, 009.6C,00002191
2014-12-25 18:31:20 r, 18.58m,0000000003Hz,0000147283c,0000000.320s, 009.6C,00002191
2014-12-25 18:41:17 r, 18.63m,0000000003Hz,0000154654c,0000000.336s, 009.9C,00002191
2014-12-25 18:51:18 r, 18.39m,0000000004Hz,0000123623c,0000000.268s, 009.9C,00002191
2014-12-25 19:01:17 r, 18.33m,0000000004Hz,0000117130c,0000000.254s, 009.9C,00002191
2014-12-25 19:11:18 r, 18.30m,0000000004Hz,0000114151c,0000000.248s, 010.3C,00002191
2014-12-25 19:21:17 r, 18.16m,0000000004Hz,0000100042c,0000000.217s, 010.3C,00002191
2014-12-25 19:31:18 r, 18.17m,0000000005Hz,0000100892c,0000000.219s, 009.9C,00002191
2014-12-25 19:41:17 r, 18.31m,0000000004Hz,0000114928c,0000000.249s, 009.9C,00002191
2014-12-25 19:51:17 r, 18.45m,0000000003Hz,0000130620c,0000000.283s, 009.9C,00002191
2014-12-25 20:01:18 r, 19.41m,0000000002Hz,0000317033c,0000000.688s, 009.6C,00002191
2014-12-25 20:11:17 r, 18.76m,0000000003Hz,0000174865c,0000000.379s, 009.6C,00002191
2014-12-25 20:21:17 r, 19.34m,0000000001Hz,0000296725c,0000000.644s, 009.6C,00002191
2014-12-25 20:31:18 r, 19.79m,0000000001Hz,0000449478c,0000000.975s, 009.6C,00002191
2014-12-25 20:41:17 r, 20.16m,0000000001Hz,0000626121c,0000001.359s, 009.3C,00002191
2014-12-25 20:51:17 r, 19.71m,0000000001Hz,0000417011c,0000000.905s, 009.0C,00002191
2014-12-25 21:01:19 r, 19.94m,0000000001Hz,0000513396c,0000001.114s, 009.0C,00002191
2014-12-25 21:11:19 r, 19.30m,0000000001Hz,0000288026c,0000000.625s, 009.0C,00002191
2014-12-25 21:21:18 r, 19.46m,0000000001Hz,0000333160c,0000000.723s, 009.0C,00002191
2014-12-25 21:31:16 r, 19.37m,0000000002Hz,0000306290c,0000000.665s, 009.3C,00002191
2014-12-25 21:41:18 r, 19.33m,0000000001Hz,0000293686c,0000000.637s, 009.3C,00002191
2014-12-25 21:51:17 r, 19.78m,0000000001Hz,0000446409c,0000000.969s, 009.3C,00002191
2014-12-25 22:01:18 r, 20.28m,0000000001Hz,0000697107c,0000001.513s, 009.3C,00002191
2014-12-25 22:11:18 r, 20.28m,0000000000Hz,0000702736c,0000001.525s, 008.7C,00002191
2014-12-25 22:21:17 r, 19.91m,0000000000Hz,0000504078c,0000001.094s, 008.3C,00002191
2014-12-25 22:31:17 r, 20.34m,0000000001Hz,0000744694c,0000001.616s, 008.0C,00002191
2014-12-25 22:41:18 r, 20.37m,0000000000Hz,0000764574c,0000001.659s, 007.7C,00002191
2014-12-25 22:51:18 r, 20.02m,0000000001Hz,0000556950c,0000001.209s, 007.4C,00002191
2014-12-25 23:01:17 r, 19.83m,0000000001Hz,0000469620c,0000001.019s, 007.4C,00002191
2014-12-25 23:11:19 r, 19.90m,0000000001Hz,0000495357c,0000001.075s, 007.4C,00002191
2014-12-25 23:21:16 r, 19.82m,0000000001Hz,0000462869c,0000001.004s, 007.4C,00002191
2014-12-25 23:31:17 r, 19.78m,0000000001Hz,0000448352c,0000000.973s, 007.7C,00002191
2014-12-25 23:41:17 r, 20.09m,0000000001Hz,0000591402c,0000001.283s, 007.7C,00002191
2014-12-25 23:51:19 r, 20.18m,0000000000Hz,0000641257c,0000001.392s, 008.0C,00002191
